Location: Grange Rosano
(44.4500°N, 6.9667°E)
Time: 19:17:30
(UTC+00:00)

USA 306 - Pass Details

Date: 26 May 2022
Orbit: 545 x 556 km, 54.0° (Epoch: 20 June)

Event Time Altitude Azimuth Distance (km) Brightness Sun altitude
Exits shadow 00:06:55 44° 87° (E) 777 3.6 -23.9°
Drops below altitude 10° 00:10:01 10° 60° (ENE) 1,843 6.0 -23.8°
Sets 00:12:17 0° 57° (ENE) 2,744 7.0 -23.7°
